CW4629 Weather Reports


time (UTC)temp
F
wind
direction
speed
knots
gust
knots
rain 1hr
in
rain 24hr
in
rain mn
in
humidity
%
barometer
mb
20260906192936 78 97 6.1 9.6 0.00 0.00 0.00 52 1019.4
20260906191939 78 100 4.3 10.4 0.00 0.00 0.00 53 1019.3
20260906190954 79 99 6.1 9.6 0.00 0.00 0.00 50 1019.4
20260906184937 78 97 4.3 7.8 0.00 0.00 0.00 50 1019.5
20260906183936 79 109 7.8 13.0 0.00 0.00 0.00 51 1019.6
20260906182954 79 135 4.3 9.6 0.00 0.00 0.00 51 1019.5
20260906182036 79 87 6.1 10.4 0.00 0.00 0.00 50 1019.4
20260906180036 79 105 3.5 6.1 0.00 0.00 0.00 50 1019.5
20260906175053 79 88 7.8 13.0 0.00 0.00 0.00 49 1019.6
20260906174954 79 99 3.5 6.1 0.00 0.00 0.00 49 1019.6
20260906174035 79 88 5.2 8.7 0.00 0.00 0.00 47 1019.6
20260906173038 79 122 3.5 7.0 0.00 0.00 0.00 47 1019.5
20260906172035 80 110 5.2 7.8 0.00 0.00 0.00 45 1019.6
20260906171036 80 129 2.6 4.3 0.00 0.00 0.00 44 1019.5
20260906170036 79 135 0.9 1.7 0.00 0.00 0.00 43 1019.5
20260906165953 79 145 0.9 2.6 0.00 0.00 0.00 43 1019.4
20260906164952 79 123 2.6 4.3 0.00 0.00 0.00 40 1019.4
20260906163937 79 112 2.6 6.1 0.00 0.00 0.00 40 1019.4
20260906163853 79 120 2.6 4.3 0.00 0.00 0.00 40 1019.2
20260906162853 80 118 3.5 6.1 0.00 0.00 0.00 39 1019.1
20260906161836 79 224 0.0 0.0 0.00 0.00 0.00 37 1019.1
20260906160850 78 247 1.7 2.6 0.00 0.00 0.00 38 1018.9
20260906154836 75 292 0.9 1.7 0.00 0.00 0.00 40 1018.9
20260906153853 74 247 0.0 0.0 0.00 0.00 0.00 43 1019.0
20260906152837 74 247 0.0 0.9 0.00 0.00 0.00 43 1019.1
20260906152739 74 247 0.0 0.9 0.00 0.00 0.00 43 1019.1
20260906151834 73 247 0.0 0.0 0.00 0.00 0.00 43 1019.1
20260906150851 72 247 0.0 0.0 0.00 0.00 0.00 44 1019.0
20260906145935 72 225 0.0 0.0 0.00 0.00 0.00 44 1018.8
20260906144951 72 225 0.0 0.0 0.00 0.00 0.00 44 1019.0
20260906144035 71 225 0.0 0.0 0.00 0.00 0.00 42 1018.8
20260906142136 71 225 0.0 0.0 0.00 0.00 0.00 44 1018.7
20260906141236 71 180 0.0 0.0 0.00 0.00 0.00 45 1018.5
20260906141138 70 180 0.0 0.0 0.00 0.00 0.00 45 1018.5
20260906140137 70 247 1.7 1.7 0.00 0.00 0.00 45 1018.5
20260906135153 69 315 0.9 1.7 0.00 0.00 0.00 47 1018.4
20260906133251 69 112 0.0 0.0 0.00 0.00 0.00 48 1018.1
20260906132250 69 112 0.0 0.0 0.00 0.00 0.00 48 1018.1
20260906130236 68 112 0.0 0.0 0.00 0.00 0.00 47 1017.7
20260906125336 69 112 0.0 0.9 0.00 0.00 0.00 47 1017.7
20260906124354 68 247 0.0 0.0 0.00 0.00 0.00 47 1017.7
20260906123352 68 247 0.0 0.0 0.00 0.00 0.00 48 1017.6
20260906120536 66 337 0.9 1.7 0.00 0.00 0.00 53 1017.7
20260906115551 67 337 0.0 0.0 0.00 0.00 0.00 51 1017.7
20260906114552 67 337 0.0 0.0 0.00 0.00 0.00 50 1017.5
20260906113635 67 337 0.0 0.0 0.00 0.00 0.00 50 1017.4
20260906112636 67 337 0.0 0.0 0.00 0.00 0.00 50 1017.2
20260906110653 67 337 1.7 2.6 0.00 0.00 0.00 50 1017.1
20260906105736 67 292 0.9 0.9 0.00 0.00 0.00 50 1017.0
20260906104736 67 292 0.0 0.0 0.00 0.00 0.00 49 1017.0
20260906102735 68 270 0.0 0.0 0.00 0.00 0.00 47 1017.1
20260906101736 69 202 0.0 0.0 0.00 0.00 0.00 46 1017.0
20260906100752 69 180 0.9 2.6 0.00 0.00 0.00 43 1016.9
20260906095752 68 22 0.9 1.7 0.00 0.00 0.00 47 1016.8
20260906094736 68 22 1.7 3.5 0.00 0.00 0.00 47 1016.8
20260906093753 69 22 0.0 0.0 0.00 0.00 0.00 45 1016.7
20260906091838 69 112 0.0 0.0 0.00 0.00 0.00 47 1016.7
20260906090852 70 112 0.0 0.0 0.00 0.00 0.00 43 1016.8
20260906085836 70 112 0.0 0.0 0.00 0.00 0.00 40 1016.7
20260906084837 70 225 0.0 0.0 0.00 0.00 0.00 43 1016.7
20260906083934 70 225 0.0 0.0 0.00 0.00 0.00 43 1016.7
20260906082951 70 225 0.0 0.0 0.00 0.00 0.00 42 1016.7
20260906082037 71 210 0.0 0.0 0.00 0.00 0.00 40 1016.7
20260906080135 71 22 0.0 0.0 0.00 0.00 0.00 41 1016.8
20260906075152 70 22 0.0 1.7 0.00 0.00 0.00 41 1016.8
20260906074250 71 22 0.0 0.0 0.00 0.00 0.00 41 1016.8
20260906073250 72 22 0.0 0.0 0.00 0.00 0.00 40 1016.8
20260906072236 72 22 0.0 0.0 0.00 0.00 0.00 38 1016.8
20260906071253 73 22 0.0 0.0 0.00 0.00 0.00 36 1016.8
20260906064335 73 292 0.0 0.0 0.00 0.00 0.00 38 1016.7
20260906063335 73 292 0.0 0.0 0.00 0.00 0.00 38 1016.6
20260906062351 74 292 0.0 0.0 0.00 0.00 0.00 35 1016.7
20260906060435 75 22 0.0 0.9 0.00 0.00 0.00 34 1016.5
20260906055521 76 180 0.0 0.0 0.00 0.00 0.00 32 1016.6
20260906054521 76 201 0.0 0.0 0.00 0.00 0.00 30 1016.6
20260906052622 76 292 0.0 0.0 0.00 0.00 0.00 33 1016.6
20260906051719 76 292 1.7 1.7 0.00 0.00 0.00 33 1016.6
20260906050720 76 22 1.7 1.7 0.00 0.00 0.00 32 1016.4
20260906050619 76 22 1.7 1.7 0.00 0.00 0.00 32 1016.3
20260906045621 76 360 1.7 1.7 0.00 0.00 0.00 32 1016.4
20260906044636 76 270 0.0 1.7 0.00 0.00 0.00 35 1016.3
20260906043719 76 270 0.0 0.0 0.00 0.00 0.00 34 1016.1
20260906043636 77 270 0.0 0.0 0.00 0.00 0.00 34 1016.1
20260906041719 78 247 0.0 0.0 0.00 0.00 0.00 30 1016.1
20260906040719 79 247 0.0 0.0 0.00 0.00 0.00 30 1016.1
20260906035818 80 247 0.0 0.0 0.00 0.00 0.00 28 1016.0
20260906034820 80 247 0.0 0.0 0.00 0.00 0.00 27 1015.9
20260906033819 82 247 0.0 0.0 0.00 0.00 0.00 26 1015.7
20260906032834 82 247 0.0 0.0 0.00 0.00 0.00 25 1015.5
20260906030836 85 180 0.0 0.0 0.00 0.00 0.00 20 1015.5
20260906025920 86 180 0.0 0.0 0.00 0.00 0.00 19 1015.4
20260906024020 87 202 0.9 1.7 0.00 0.00 0.00 17 1015.2
20260906023021 88 225 1.7 2.6 0.00 0.00 0.00 18 1015.2
20260906022020 89 225 0.9 2.6 0.00 0.00 0.00 17 1014.9
20260906021020 89 225 3.5 5.2 0.00 0.00 0.00 16 1014.9
20260906020038 90 239 4.3 7.0 0.00 0.00 0.00 16 1014.9
20260906015118 91 243 4.3 6.1 0.00 0.00 0.00 16 1014.9
20260906014118 91 247 2.6 7.0 0.00 0.00 0.00 15 1014.9
20260906013135 92 226 4.3 7.8 0.00 0.00 0.00 16 1014.9
20260906012219 92 230 5.2 7.8 0.00 0.00 0.00 16 1014.9
20260906011218 93 237 7.0 11.3 0.00 0.00 0.00 16 1014.9
20260906010218 93 209 5.2 8.7 0.00 0.00 0.00 15 1014.9
20260906005235 93 237 7.8 10.4 0.00 0.00 0.00 14 1014.9
20260906004220 93 240 7.0 8.7 0.00 0.00 0.00 14 1014.7
20260906003234 94 231 9.6 12.2 0.00 0.00 0.00 14 1014.7
20260906000219 95 227 7.0 9.6 0.00 0.00 0.00 15 1014.6
20260905235219 94 238 7.0 11.3 0.00 0.00 0.00 15 1014.6
20260905234219 94 230 8.7 12.2 0.00 0.00 0.00 14 1014.6
20260905233218 94 234 10.4 17.4 0.00 0.00 0.00 15 1014.7
20260905232219 95 246 8.7 12.2 0.00 0.00 0.00 15 1014.8
20260905231220 94 201 7.0 13.9 0.00 0.00 0.00 15 1014.9
20260905230237 95 231 13.0 21.7 0.00 0.00 0.00 16 1014.9
20260905225335 95 244 8.7 17.4 0.00 0.00 0.00 15 1014.7
20260905224336 96 238 5.2 8.7 0.00 0.00 0.00 15 1015.0
20260905223320 95 228 11.3 16.5 0.00 0.00 0.00 15 1014.9
20260905222335 95 228 7.8 13.0 0.00 0.00 0.00 16 1015.4
20260905221420 95 237 7.8 14.8 0.00 0.00 0.00 16 1015.3
20260905215520 95 240 9.6 14.8 0.00 0.00 0.00 16 1015.6
20260905214618 95 250 6.1 8.7 0.00 0.00 0.00 15 1015.7
20260905213619 94 247 0.9 1.7 0.00 0.00 0.00 15 1015.9
20260905212718 94 237 7.0 10.4 0.00 0.00 0.00 16 1016.0
20260905211735 94 245 6.1 7.8 0.00 0.00 0.00 15 1016.2
20260905210820 94 200 8.7 16.5 0.00 0.00 0.00 15 1016.4
20260905205836 94 241 7.0 11.3 0.00 0.00 0.00 16 1016.4
20260905204918 94 212 7.8 11.3 0.00 0.00 0.00 16 1016.4
20260905203938 95 201 7.8 12.2 0.00 0.00 0.00 15 1016.6
20260905203018 94 187 3.5 6.1 0.00 0.00 0.00 15 1016.7
20260905202020 93 228 5.2 9.6 0.00 0.00 0.00 15 1016.7
20260905201019 93 256 5.2 7.8 0.00 0.00 0.00 16 1016.6
20260905200118 93 219 7.8 12.2 0.00 0.00 0.00 16 1016.7
20260905200037 94 223 8.7 14.8 0.00 0.00 0.00 15 1016.7
20260905195119 94 197 7.0 10.4 0.00 0.00 0.00 16 1016.9
20260905194218 94 220 3.5 5.2 0.00 0.00 0.00 17 1017.0